"Pseudo-MPEC" for C9J6PU2

Created 2023 Sep 20 17:22:16 UT using Find_Orb

Click here for an explanation of pseudo-MPECs

 
 Astrometry: 
     C9J6PU2*1C2023 09 19.40517403 51 31.187+01 52 54.12   ~9JAb 19.98GVNEOCPG96
     C9J6PU2 1C2023 09 19.41034703 51 25.621+01 55 10.81   ~9JAb       VNEOCPG96
     C9J6PU2 1C2023 09 19.41552903 51 20.045+01 57 27.54   ~9JAb 20.10GVNEOCPG96
     C9J6PU2 1C2023 09 19.42070603 51 14.569+01 59 41.57   ~9JAb       VNEOCPG96
     C9J6PU2 KC2023 09 19.50040703 49 50.999+02 33 35.93   ~9JCM 19.79GVNEOCPV06
     C9J6PU2 KC2023 09 19.50080803 49 50.574+02 33 45.97   ~9JCM 19.86GVNEOCPV06
     C9J6PU2 KC2023 09 19.50121203 49 50.149+02 33 56.27   ~9JCM 19.67GVNEOCPV06
     C9J6PU2 1C2023 09 19.99607 03 43 58.31 +05 32 58.3    ~9K0M 20.8 VXNEOCP033
     C9J6PU2 1C2023 09 19.99671 03 43 57.89 +05 33 10.3    ~9K0M 20.8 VXNEOCP033
     C9J6PU2 1C2023 09 19.99758 03 43 57.26 +05 33 26.9    ~9K0M 20.6 VXNEOCP033
     C9J6PU2 1C2023 09 19.99876 03 43 56.38 +05 33 49.5    ~9K0M 20.9 VXNEOCP033
     C9J6PU2 KB2023 09 20.09282303 42 50.22 +06 04 05.9    ~9K2q 20.4 GVNEOCPI93
     C9J6PU2 KB2023 09 20.09733403 42 46.79 +06 05 29.7    ~9K2q 20.9 GVNEOCPI93
     C9J6PU2 KB2023 09 20.10183503 42 43.40 +06 06 52.6    ~9K2q 20.5 GVNEOCPI93
     C9J6PU2  C2023 09 20F!mpCoF,@+$?#rbU'Astrometryl?/%\fE/'jkj=^a:-a!'mYFJQ654
     C9J6PU2  C2023 09 20bZXLQL+4redacted;8Q4!2Yq##hclick;)H^OM=PQnl1M/8$5wl'654
     C9J6PU2  C2023 09 20N[(`nS=qAhere2j$Zforpbdw%nNN::UI,38)?Xa!rUTjvpT7@=U=654
     C9J6PU2  C2023 09 20vIFJc:%gF9%Osya4ZCU$I+Zt9q:0LX-OX1mrkexplanationZ^9m654

Station data:
(033) Karl Schwarzschild Observatory, Tautenburg  (N50.980137 E11.711240)
   Germany.  Observer B. Stecklum. 1.34-m f/3 Schmidt + CCD.
(654) Table Mountain Observatory, Wrightwood-PHMC  (N34.381820 W117.681590)
   US/California.  Observers P. Choi, N. Saini, C. Zhai, R. Trahan, M. Shao.
(G96) Mt. Lemmon Survey  (N32.442751 W110.788720)  US/Arizona.  Observer E.
   J. Christensen. 1.5-m reflector + 10K CCD.
(I93) St Pardon de Conques  (N44.558708 W0.203000)  France.  Observers F.
   Losse, W. D'Anna. Measurer F. Losse. 0.40-m f/3.7 reflector + CCD.
(V06) Catalina Sky Survey-Kuiper  (N32.416844 W110.732550)  US/Arizona.
   Observers T. A. Pruyne, B. M. Africano, E. J. Christensen, G. A. Farneth,
   D. C. Fuls, A. R. Gibbs, A. D. Grauer, H. Gröller, J. A. Johnson, R. A.
   Kowalski, S. M. Larson, G. J. Leonard, D. Rankin, R. L. Seaman, F. C.
   Shelly, K. W. Wierzchoś. 1.55-m reflector + CCD.

Orbital elements:  C9J6PU2
   Perihelion 2023 Sep 1.60398 +/- 0.00177 TT = 14:29:44 (JD 2460189.10398)
Epoch 2023 Sep 20.0 TT = JDT 2460207.5   Earth MOID: 0.0069   Ma: 0.0359
M   4.84684903 +/- 0.016            (J2000 ecliptic)             AutoNEOCP
n   0.26347274 +/- 0.000884         Peri.  330.15878 +/- 0.007
a   2.40978847 +/- 0.00539          Node     4.27900 +/- 0.0040
e   0.5913274 +/- 0.000926          Incl.    2.18935 +/- 0.0030
P   3.74                   H 27.08  G  0.15   U  8.0
q 0.98481451 +/- 2.95e-5    Q 3.83476243 +/- 0.0108
From 18 observations 2023 Sept. 19-20 (23.6 hr); mean residual 0".39
Residuals in arcseconds: 
230919 G96  .93+  .39-    230919 V06  .08-  .04-    230920 I93  .20-  .43+    
230919 G96  .08+  .24+    230919 033  .89-  .41+    230920 I93  .12+  .36+    
230919 G96  .82-  1.1+    230919 033  .01-  .03-    230920 654  .16+  .02-    
230919 G96  .36-  .28-    230919 033  .31+  .33-    230920 654  .04+  .11-    
230919 V06  .27+  .31-    230919 033  .35+  .65-    230920 654  .04+  .04-    
230919 V06  .07+  .27-    230920 I93  .03-  .02-    230920 654  .01+  .02-    

Ephemerides (geocentric):
Date (UTC) HH   RA             Dec           delta  r     elong  mag " sig PA
---- --------  ------------   ------------  ------ ------ -----  --- --------
2023 09 20 17  03 36 59.025   +08 52 03.33  .02307 1.0169 122.5 21.0 .306 124
2023 09 20 18  03 36 38.832   +09 01 34.51  .02327 1.0171 122.6 21.0 .294 122
2023 09 20 19  03 36 18.965   +09 10 55.60  .02348 1.0172 122.7 21.0 .282 119
2023 09 20 20  03 35 59.418   +09 20 06.85  .02368 1.0173 122.8 21.0 .270 116
2023 09 20 21  03 35 40.183   +09 29 08.52  .02389 1.0175 122.9 21.0 .259 113
2023 09 20 22  03 35 21.251   +09 38 00.83  .02410 1.0176 123.0 21.1 .249 109
2023 09 20 23  03 35 02.615   +09 46 44.02  .02430 1.0177 123.1 21.1 .240 105
2023 09 21 00  03 34 44.269   +09 55 18.31  .02451 1.0179 123.2 21.1 .231 101
2023 09 21 01  03 34 26.205   +10 03 43.91  .02472 1.0180 123.3 21.1 .224  96
2023 09 21 02  03 34 08.417   +10 12 01.04  .02493 1.0182 123.4 21.1 .218  91
2023 09 21 03  03 33 50.897   +10 20 09.89  .02513 1.0183 123.5 21.1 .214  86
2023 09 21 04  03 33 33.641   +10 28 10.66  .02534 1.0184 123.5 21.2 .212  80
2023 09 21 05  03 33 16.641   +10 36 03.55  .02555 1.0186 123.6 21.2 .211  75
2023 09 21 06  03 32 59.893   +10 43 48.74  .02576 1.0187 123.7 21.2 .212  69
2023 09 21 07  03 32 43.389   +10 51 26.40  .02596 1.0189 123.8 21.2 .215  64
2023 09 21 08  03 32 27.125   +10 58 56.71  .02617 1.0190 123.9 21.2 .220  59
2023 09 21 09  03 32 11.095   +11 06 19.84  .02638 1.0191 124.0 21.2 .226  53
2023 09 21 10  03 31 55.294   +11 13 35.96  .02659 1.0193 124.1 21.2 .234  49
2023 09 21 11  03 31 39.717   +11 20 45.22  .02680 1.0194 124.2 21.3 .244  44
2023 09 21 12  03 31 24.359   +11 27 47.77  .02701 1.0196 124.2 21.3 .254  40
2023 09 21 13  03 31 09.215   +11 34 43.77  .02722 1.0197 124.3 21.3 .266  36
2023 09 21 14  03 30 54.281   +11 41 33.37  .02742 1.0198 124.4 21.3 .279  33
2023 09 21 15  03 30 39.551   +11 48 16.69  .02763 1.0200 124.5 21.3 .293  30
2023 09 21 16  03 30 25.021   +11 54 53.89  .02784 1.0201 124.6 21.3 .308  27
2023 09 21 17  03 30 10.688   +12 01 25.10  .02805 1.0203 124.7 21.3 .323  24
2023 09 21 18  03 29 56.547   +12 07 50.43  .02826 1.0204 124.7 21.4 .338  22
2023 09 21 19  03 29 42.594   +12 14 10.03  .02847 1.0206 124.8 21.4 .355  20
2023 09 21 20  03 29 28.825   +12 20 24.01  .02868 1.0207 124.9 21.4 .371  18
2023 09 21 21  03 29 15.237   +12 26 32.50  .02889 1.0208 125.0 21.4 .388  16
2023 09 21 22  03 29 01.824   +12 32 35.60  .02910 1.0210 125.0 21.4 .405  14
2023 09 21 23  03 28 48.585   +12 38 33.44  .02931 1.0211 125.1 21.4 .423  13
2023 09 22 00  03 28 35.515   +12 44 26.12  .02952 1.0213 125.2 21.4 .440  11
2023 09 22 01  03 28 22.611   +12 50 13.75  .02973 1.0214 125.3 21.5 .458  10
2023 09 22 02  03 28 09.869   +12 55 56.43  .02994 1.0216 125.3 21.5 .476   9
2023 09 22 03  03 27 57.287   +13 01 34.26  .03016 1.0217 125.4 21.5 .494   8
2023 09 22 04  03 27 44.860   +13 07 07.35  .03037 1.0219 125.5 21.5 .512   7
2023 09 22 05  03 27 32.587   +13 12 35.78  .03058 1.0220 125.6 21.5 .531   6
2023 09 22 06  03 27 20.464   +13 17 59.66  .03079 1.0221 125.6 21.5 .549   5
2023 09 22 07  03 27 08.488   +13 23 19.07  .03100 1.0223 125.7 21.5 .567   4
2023 09 22 08  03 26 56.656   +13 28 34.10  .03121 1.0224 125.8 21.5 .586   3
2023 09 22 09  03 26 44.965   +13 33 44.84  .03142 1.0226 125.9 21.6 .604   2
2023 09 22 10  03 26 33.413   +13 38 51.37  .03163 1.0227 125.9 21.6 .622   2
2023 09 22 11  03 26 21.997   +13 43 53.78  .03184 1.0229 126.0 21.6 .641   1
2023 09 22 12  03 26 10.715   +13 48 52.14  .03206 1.0230 126.1 21.6 .659   0
2023 09 22 13  03 25 59.564   +13 53 46.53  .03227 1.0232 126.1 21.6 .677   0
2023 09 22 14  03 25 48.540   +13 58 37.04  .03248 1.0233 126.2 21.6 .696 179
2023 09 22 15  03 25 37.644   +14 03 23.72  .03269 1.0235 126.3 21.6 .714 179
2023 09 22 16  03 25 26.870   +14 08 06.66  .03290 1.0236 126.3 21.6 .732 178